Weather History for Plymouth, NH

Change the Weather History Date:

Wednesday, May 9, 2012

  Actual Average (KLCI) Record (KLCI)
Temperature  
Mean Temperature 54 °F -  
Max Temperature 63 °F 64 °F 80 °F (2007)
Min Temperature 46 °F 40 °F 30 °F (1985)
Degree Days  
Heating Degree Days 10    
Growing Degree Days 4 (Base 50)    
Moisture  
Dew Point 52 °F    
Average Humidity 91    
Maximum Humidity 99    
Minimum Humidity 77    
Precipitation  
Precipitation 0.01 in - - ()
Sea Level Pressure  
Sea Level Pressure 29.71 in    
Wind  
Wind Speed 0 mph (East)    
Max Wind Speed 6 mph    
Max Gust Speed -    
Visibility 8 miles    
Events      
Averages and records for this station are not official NWS values.
T = Trace of Precipitation, MM = Missing Value Source: NWS Daily Summary

Daily Weather History Graph

Daily Weather History Graph

Search for Another Location

Airport:

Trip Planner

Search our weather history database for the weather conditions in past years. The results will help you decide how hot, cold, wet, or windy it might be!

Date:

Astronomy

May. 09, 2012 Rise Set
Actual Time 5:27 AM EDT 7:59 PM EDT
Civil Twilight 4:55 AM EDT 8:32 PM EDT
Nautical Twilight 4:14 AM EDT 9:13 PM EDT
Astronomical Twilight 3:28 AM EDT 9:59 PM EDT
Moon 11:58 PM EDT (5/9) 8:37 AM EDT (5/9)
Length of Visible Light 15h 36m
Length of Day
14h 31m
Waning Gibbous, 83% of the Moon is Illuminated
May 9
Waning Gibbous
May 12
Last Quarter
May 20
New
May 28
First Quarter
Jun 4
Full

Hourly Weather History & Observations

Time (EDT) Temp. Dew Point Humidity Pressure Visibility Wind Dir Wind Speed Gust Speed Precip Events Conditions
12:15 AM 46.4 °F 46.2 °F 99% 29.86 in 3.0 mi Calm Calm - 0.01 in   Light Drizzle
12:35 AM 46.4 °F 46.0 °F 99% 29.85 in 4.0 mi Calm Calm - 0.01 in   Light Drizzle
1:15 AM 46.6 °F 46.4 °F 99% 29.86 in 3.0 mi Calm Calm - N/A   Light Drizzle
1:35 AM 46.6 °F 46.4 °F 99% 29.84 in 4.0 mi Calm Calm - 0.01 in   Drizzle
1:55 AM 46.6 °F 46.4 °F 99% 29.83 in 4.0 mi Calm Calm - 0.01 in   Overcast
2:15 AM 46.6 °F 46.4 °F 99% 29.83 in 3.0 mi Calm Calm - N/A   Overcast
2:35 AM 46.6 °F 46.4 °F 99% 29.82 in 3.0 mi Calm Calm - N/A   Overcast
2:55 AM 46.8 °F 46.6 °F 99% 29.82 in 4.0 mi Calm Calm - N/A   Overcast
3:15 AM 46.8 °F 46.6 °F 99% 29.81 in 5.0 mi Calm Calm - N/A   Overcast
3:35 AM 46.8 °F 46.6 °F 99% 29.81 in 7.0 mi Calm Calm - N/A   Overcast
3:55 AM 46.9 °F 46.8 °F 99% 29.81 in 7.0 mi Calm Calm - N/A   Overcast
4:15 AM 46.9 °F 46.8 °F 99% 29.81 in 10.0 mi Calm Calm - N/A   Overcast
4:35 AM 46.9 °F 46.6 °F 99% 29.80 in 7.0 mi Calm Calm - N/A   Overcast
4:55 AM 46.9 °F 46.8 °F 99% 29.79 in 10.0 mi Calm Calm - N/A   Overcast
5:15 AM 46.9 °F 46.8 °F 99% 29.79 in 7.0 mi Calm Calm - N/A   Overcast
5:35 AM 46.9 °F 46.8 °F 99% 29.78 in 5.0 mi Calm Calm - N/A   Overcast
5:55 AM 46.9 °F 46.6 °F 99% 29.79 in 4.0 mi Calm Calm - N/A   Overcast
6:15 AM 46.9 °F 46.8 °F 99% 29.78 in 1.8 mi Calm Calm - N/A   Overcast
6:35 AM 47.1 °F 46.8 °F 99% 29.79 in 4.0 mi Calm Calm - N/A   Overcast
6:55 AM 47.3 °F 46.8 °F 98% 29.78 in 3.0 mi Calm Calm - N/A   Overcast
7:35 AM 47.5 °F 47.3 °F 99% 29.78 in 2.0 mi Calm Calm - N/A   Overcast
7:55 AM 48.0 °F 47.7 °F 99% 29.78 in 2.5 mi Calm Calm - N/A   Overcast
8:15 AM 48.4 °F 48.2 °F 99% 29.77 in 5.0 mi Calm Calm - N/A   Overcast
8:35 AM 48.7 °F 48.2 °F 98% 29.78 in 5.0 mi Calm Calm - N/A   Overcast
8:55 AM 49.5 °F 48.6 °F 97% 29.77 in 7.0 mi Calm Calm - N/A   Overcast
9:15 AM 50.2 °F 48.7 °F 95% 29.77 in 7.0 mi Calm Calm - N/A   Overcast
9:35 AM 51.1 °F 49.8 °F 95% 29.76 in 5.0 mi Calm Calm - N/A   Overcast
9:55 AM 52.0 °F 50.5 °F 95% 29.75 in 10.0 mi Calm Calm - N/A   Overcast
10:15 AM 52.7 °F 50.4 °F 92% 29.75 in 10.0 mi Calm Calm - N/A   Overcast
10:35 AM 53.8 °F 51.1 °F 91% 29.74 in 10.0 mi Calm Calm - N/A   Overcast
10:55 AM 55.6 °F 52.3 °F 89% 29.73 in 10.0 mi Calm Calm - N/A   Overcast
11:15 AM 55.8 °F 52.2 °F 88% 29.74 in 10.0 mi Calm Calm - N/A   Overcast
11:35 AM 56.7 °F 52.7 °F 87% 29.73 in 10.0 mi Calm Calm - N/A   Overcast
11:55 AM 57.9 °F 53.4 °F 85% 29.72 in 10.0 mi ESE 3.5 mph - N/A   Overcast
12:15 PM 58.3 °F 53.8 °F 85% 29.71 in 10.0 mi Calm Calm - N/A   Overcast
12:35 PM 59.4 °F 54.3 °F 83% 29.71 in 10.0 mi Calm Calm - N/A   Overcast
12:55 PM 61.0 °F 55.2 °F 81% 29.71 in 10.0 mi East 4.6 mph - N/A   Overcast
1:15 PM 61.5 °F 55.9 °F 82% 29.70 in 10.0 mi East 3.5 mph - N/A   Overcast
1:35 PM 61.3 °F 55.0 °F 80% 29.69 in 10.0 mi Calm Calm - N/A   Overcast
1:55 PM 62.6 °F 55.8 °F 78% 29.69 in 10.0 mi Calm Calm - N/A   Overcast
2:15 PM 63.5 °F 56.3 °F 77% 29.68 in 10.0 mi East 4.6 mph - N/A   Overcast
2:35 PM 63.5 °F 56.3 °F 77% 29.67 in 10.0 mi East 5.8 mph - N/A   Overcast
2:55 PM 63.5 °F 56.1 °F 77% 29.67 in 10.0 mi ESE 3.5 mph - N/A   Overcast
3:15 PM 63.9 °F 56.7 °F 77% 29.68 in 10.0 mi East 4.6 mph - N/A   Overcast
3:35 PM 63.7 °F 56.3 °F 77% 29.67 in 10.0 mi Calm Calm - N/A   Overcast
3:55 PM 63.5 °F 56.1 °F 77% 29.66 in 10.0 mi Calm Calm - N/A   Overcast
4:15 PM 63.0 °F 56.1 °F 78% 29.65 in 10.0 mi Calm Calm - N/A   Overcast
4:55 PM 62.2 °F 56.5 °F 81% 29.65 in 10.0 mi Calm Calm - N/A   Overcast
5:15 PM 62.2 °F 56.8 °F 82% 29.65 in 10.0 mi Calm Calm - N/A   Overcast
5:35 PM 62.2 °F 56.5 °F 81% 29.64 in 10.0 mi Calm Calm - N/A   Overcast
5:55 PM 61.9 °F 56.8 °F 84% 29.63 in 10.0 mi East 3.5 mph - N/A   Overcast
6:15 PM 61.7 °F 56.8 °F 84% 29.63 in 10.0 mi ESE 3.5 mph - N/A   Overcast
6:35 PM 61.7 °F 57.2 °F 85% 29.63 in 10.0 mi Calm Calm - N/A   Overcast
6:55 PM 61.3 °F 57.2 °F 86% 29.63 in 10.0 mi Calm Calm - N/A   Overcast
7:15 PM 61.3 °F 57.2 °F 86% 29.63 in 10.0 mi Calm Calm - N/A   Overcast
7:35 PM 61.2 °F 57.4 °F 87% 29.63 in 10.0 mi Calm Calm - N/A   Overcast
7:55 PM 60.8 °F 57.4 °F 88% 29.62 in 10.0 mi Calm Calm - N/A   Overcast
8:15 PM 60.3 °F 57.6 °F 91% 29.61 in 10.0 mi Calm Calm - N/A   Overcast
8:35 PM 59.9 °F 57.6 °F 92% 29.61 in 10.0 mi ENE 3.5 mph - N/A   Overcast
8:55 PM 59.4 °F 57.6 °F 94% 29.62 in 10.0 mi ENE 3.5 mph - N/A   Overcast
9:15 PM 59.2 °F 57.7 °F 95% 29.62 in 7.0 mi Calm Calm - N/A   Overcast
9:35 PM 59.2 °F 57.9 °F 96% 29.62 in 7.0 mi ENE 3.5 mph - N/A   Overcast
9:55 PM 58.1 °F 57.0 °F 96% 29.61 in 7.0 mi Calm Calm - N/A   Overcast
10:15 PM 58.6 °F 57.7 °F 97% 29.61 in 7.0 mi Calm Calm - N/A   Overcast
10:35 PM 58.5 °F 57.6 °F 97% 29.60 in 5.0 mi Calm Calm - N/A   Overcast
10:55 PM 58.5 °F 57.4 °F 96% 29.60 in 7.0 mi Calm Calm - N/A   Overcast
11:15 PM 58.1 °F 57.2 °F 97% 29.60 in 5.0 mi Calm Calm - N/A   Overcast
11:35 PM 58.1 °F 57.2 °F 97% 29.59 in 5.0 mi Calm Calm - N/A   Overcast
11:55 PM 58.1 °F 57.2 °F 97% 29.59 in 4.0 mi Calm Calm - N/A   Overcast